QPF
0.00 0.00 0.00 0.00 0.00 0.00 0.00 0.00 0.00 0.00 0.00 0.00 0.00 0.00 0.00 0.00 0.00 0.00 0.00 0.00 0.00 0.00 0.00 0.00 0.00 0.00 0.00 0.00 0.00 0.00 0.00 0.00 0.00 0.00 0.00 0.00 0.00 0.00 0.00 0.00 0.00 0.00 0.00 0.00 0.00 0.00 0.00 0.00 0.00 0.00 0.00 0.00 0.00 0.00
0.00 0.00 0.00 0.00 0.00 0.00 0.00 0.00 0.00 0.00 0.00 0.00 0.00 0.00 0.00 0.00 0.00 0.00 0.00 0.00 0.00 0.01 0.00 0.00 0.00 0.00 0.00 0.00 0.00 0.00 0.00 0.00 0.01 0.01 0.00 0.01 0.00 0.00 0.00 0.00 0.00 0.00 0.00 0.00 0.00 0.00 0.00 0.00 0.00 0.00 0.00 0.00 0.00 0.00
0.00 0.00 0.00 0.00 0.00 0.00 0.00 0.00 0.00 0.00 0.00 0.00 0.00 0.00 0.00 0.00 0.00 0.00 0.00 0.00 0.00 0.00 0.00 0.00 0.00 0.00 0.00 0.00 0.00 0.00 0.00 0.00 0.00 0.01 0.02 0.01 0.01 0.00 0.00 0.00 0.00 0.00 0.00 0.00 0.00 0.00 0.00 0.00 0.00 0.00 0.00 0.00 0.00 0.00
0.01 0.01 0.00 0.00 0.00 0.00 0.00 0.00 0.00 0.00 0.00 0.00 0.00 0.00 0.00 0.00 0.01 0.01 0.01 0.00 0.00 0.00 0.00 0.00 0.00 0.00 0.00 0.00 0.00 0.00 0.00 0.00 0.00 0.01 0.03 0.01 0.01 0.01 0.01 0.00 0.00 0.00 0.00 0.00 0.00 0.00 0.00 0.00 0.00 0.00 0.00 0.00 0.00 0.00
0.00 0.00 0.00 0.00 0.00 0.00 0.00 0.00 0.00 0.00 0.00 0.00 0.00 0.00 0.00 0.00 0.00 0.00 0.00 0.00 0.00 0.01 0.00 0.00 0.00 0.00 0.00 0.00 0.00 0.00 0.00 0.00 0.00 0.01 0.01 0.01 0.01 0.02 0.00 0.01 0.00 0.00 0.00 0.00 0.00 0.00 0.00 0.00 0.00 0.00 0.00 0.00 0.00 0.00
0.00 0.00 0.00 0.00 0.00 0.00 0.00 0.00 0.00 0.00 0.00 0.00 0.00 0.00 0.00 0.00 0.00 0.00 0.00 0.00 0.00 0.01 0.01 0.00 0.00 0.00 0.00 0.00 0.00 0.00 0.00 0.00 0.00 0.00 0.00 0.00 0.00 0.01 0.01 0.00 0.00 0.00 0.00 0.00 0.01 0.00 0.00 0.00 0.00 0.00 0.00 0.00 0.00 0.00
0.00 0.00 0.00 0.00 0.00 0.00 0.00 0.00 0.00 0.00 0.00 0.00 0.00 0.00 0.00 0.01 0.01 0.00 0.00 0.01 0.02 0.03 0.03 0.01 0.00 0.00 0.00 0.00 0.00 0.00 0.00 0.00 0.00 0.00 0.00 0.00 0.00 0.04 0.03 0.01 0.00 0.00 0.00 0.00 0.00 0.00 0.00 0.00 0.00 0.00 0.00 0.00 0.00 0.00
0.00 0.00 0.00 0.00 0.00 0.00 0.00 0.00 0.00 0.00 0.00 0.00 0.00 0.00 0.00 0.00 0.01 0.00 0.00 0.00 0.03 0.04 0.03 0.01 0.00 0.00 0.00 0.00 0.00 0.00 0.00 0.00 0.00 0.00 0.00 0.00 0.00 0.02 0.01 0.00 0.00 0.00 0.00 0.00 0.00 0.00 0.00 0.00 0.00 0.00 0.00 0.00 0.00 0.00
0.00 0.00 0.00 0.00 0.00 0.00 0.00 0.00 0.00 0.00 0.00 0.00 0.00 0.00 0.00 0.00 0.00 0.00 0.00 0.00 0.01 0.03 0.02 0.01 0.00 0.00 0.00 0.00 0.00 0.00 0.01 0.01 0.00 0.01 0.00 0.00 0.00 0.01 0.00 0.00 0.00 0.00 0.00 0.00 0.00 0.00 0.00 0.00 0.00 0.00 0.00 0.00 0.00 0.00
0.00 0.00 0.00 0.00 0.00 0.00 0.00 0.00 0.00 0.00 0.00 0.00 0.00 0.00 0.00 0.00 0.00 0.00 0.01 0.01 0.01 0.03 0.02 0.00 0.00 0.00 0.00 0.00 0.00 0.00 0.01 0.00 0.01 0.00 0.01 0.02 0.00 0.00 0.00 0.00 0.00 0.00 0.00 0.00 0.00 0.00 0.00 0.00 0.00 0.00 0.00 0.00 0.00 0.00
0.00 0.00 0.00 0.00 0.00 0.00 0.00 0.00 0.00 0.00 0.00 0.00 0.00 0.00 0.00 0.00 0.01 0.01 0.01 0.00 0.01 0.02 0.01 0.00 0.00 0.00 0.00 0.00 0.00 0.01 0.01 0.01 0.02 0.00 0.02 0.04 0.02 0.01 0.00 0.00 0.00 0.00 0.00 0.00 0.00 0.00 0.00 0.00 0.00 0.00 0.00 0.00 0.00 0.00
0.00 0.00 0.00 0.00 0.00 0.00 0.00 0.00 0.00 0.01 0.00 0.00 0.00 0.00 0.00 0.00 0.00 0.00 0.00 0.00 0.00 0.00 0.00 0.00 0.02 0.01 0.02 0.01 0.02 0.05 0.05 0.03 0.02 0.01 0.02 0.02 0.01 0.00 0.00 0.00 0.00 0.00 0.00 0.00 0.00 0.00 0.00 0.00 0.00 0.00 0.00 0.00 0.00 0.00
0.01 0.00 0.00 0.00 0.00 0.00 0.00 0.00 0.00 0.01 0.02 0.03 0.01 0.00 0.01 0.01 0.00 0.00 0.00 0.00 0.00 0.00 0.00 0.02 0.02 0.03 0.05 0.04 0.05 0.05 0.04 0.03 0.01 0.02 0.02 0.00 0.00 0.00 0.00 0.01 0.00 0.00 0.00 0.01 0.01 0.00 0.00 0.00 0.00 0.00 0.00 0.00 0.00 0.00
0.02 0.01 0.01 0.00 0.00 0.00 0.00 0.00 0.01 0.03 0.02 0.01 0.02 0.01 0.00 0.00 0.00 0.00 0.00 0.00 0.00 0.00 0.01 0.00 0.02 0.03 0.03 0.04 0.03 0.03 0.02 0.02 0.02 0.01 0.00 0.00 0.00 0.00 0.00 0.00 0.00 0.00 0.01 0.02 0.00 0.00 0.00 0.00 0.00 0.00 0.00 0.00 0.00 0.00
0.02 0.02 0.02 0.01 0.01 0.01 0.01 0.01 0.02 0.04 0.02 0.01 0.03 0.01 0.00 0.00 0.00 0.00 0.00 0.00 0.00 0.01 0.00 0.00 0.02 0.02 0.02 0.03 0.02 0.02 0.02 0.02 0.01 0.00 0.00 0.00 0.00 0.00 0.00 0.00 0.00 0.00 0.00 0.00 0.00 0.00 0.00 0.00 0.00 0.00 0.00 0.00 0.00 0.00
0.05 0.07 0.03 0.02 0.01 0.02 0.03 0.03 0.05 0.05 0.03 0.02 0.01 0.00 0.00 0.00 0.00 0.00 0.00 0.00 0.02 0.01 0.00 0.01 0.04 0.03 0.01 0.02 0.01 0.02 0.01 0.00 0.00 0.00 0.00 0.00 0.00 0.00 0.00 0.00 0.00 0.00 0.00 0.00 0.00 0.00 0.00 0.00 0.00 0.00 0.00 0.00 0.00 0.00
0.06 0.04 0.01 0.03 0.03 0.04 0.05 0.03 0.02 0.01 0.01 0.01 0.00 0.00 0.00 0.00 0.00 0.00 0.01 0.00 0.01 0.01 0.03 0.03 0.03 0.03 0.02 0.02 0.00 0.00 0.00 0.00 0.00 0.00 0.00 0.00 0.00 0.00 0.00 0.00 0.00 0.00 0.00 0.00 0.00 0.00 0.00 0.00 0.00 0.00 0.00 0.00 0.00 0.00
0.05 0.01 0.01 0.01 0.02 0.01 0.01 0.01 0.01 0.01 0.01 0.00 0.00 0.00 0.00 0.00 0.00 0.00 0.00 0.00 0.00 0.00 0.01 0.01 0.02 0.02 0.01 0.01 0.00 0.00 0.00 0.00 0.00 0.00 0.00 0.00 0.00 0.00 0.00 0.00 0.00 0.00 0.00 0.00 0.00 0.00 0.00 0.00 0.00 0.00 0.00 0.00 0.00 0.00
0.02 0.01 0.01 0.01 0.01 0.00 0.00 0.00 0.00 0.00 0.00 0.00 0.00 0.00 0.00 0.00 0.00 0.00 0.00 0.00 0.00 0.00 0.01 0.02 0.03 0.01 0.00 0.00 0.00 0.00 0.00 0.00 0.00 0.00 0.00 0.00 0.00 0.00 0.00 0.00 0.00 0.00 0.00 0.00 0.00 0.00 0.00 0.00 0.00 0.00 0.00 0.00 0.00 0.00
0.01 0.01 0.01 0.02 0.01 0.00 0.00 0.00 0.00 0.00 0.00 0.00 0.00 0.00 0.00 0.00 0.00 0.00 0.00 0.00 0.00 0.00 0.01 0.01 0.00 0.00 0.00 0.00 0.00 0.00 0.00 0.00 0.00 0.00 0.00 0.00 0.00 0.00 0.00 0.00 0.00 0.00 0.00 0.00 0.00 0.00 0.00 0.00 0.00 0.00 0.00 0.00 0.00 0.00
0.01 0.02 0.03 0.03 0.01 0.00 0.01 0.00 0.00 0.00 0.00 0.00 0.00 0.00 0.00 0.00 0.00 0.00 0.00 0.00 0.00 0.00 0.00 0.00 0.00 0.00 0.00 0.00 0.00 0.00 0.00 0.00 0.00 0.00 0.00 0.00 0.00 0.00 0.00 0.00 0.00 0.00 0.00 0.00 0.00 0.00 0.00 0.00 0.00 0.00 0.00 0.00 0.00 0.00
0.00 0.02 0.00 0.01 0.00 0.01 0.01 0.00 0.00 0.00 0.00 0.00 0.00 0.00 0.00 0.00 0.00 0.00 0.00 0.00 0.00 0.00 0.00 0.00 0.00 0.00 0.00 0.00 0.00 0.00 0.00 0.00 0.00 0.00 0.00 0.00 0.00 0.00 0.00 0.00 0.00 0.00 0.00 0.00 0.00 0.00 0.00 0.00 0.00 0.00 0.00 0.00 0.00 0.00
0.00 0.00 0.00 0.00 0.00 0.00 0.00 0.00 0.00 0.00 0.00 0.00 0.00 0.00 0.00 0.00 0.00 0.00 0.00 0.00 0.00 0.00 0.00 0.00 0.00 0.00 0.00 0.00 0.00 0.00 0.00 0.00 0.00 0.00 0.00 0.00 0.00 0.00 0.00 0.00 0.00 0.00 0.00 0.00 0.00 0.00 0.00 0.00 0.00 0.00 0.00 0.00 0.00 0.00
0.00 0.00 0.00 0.00 0.00 0.00 0.00 0.00 0.00 0.00 0.00 0.00 0.00 0.00 0.00 0.00 0.00 0.00 0.00 0.00 0.00 0.00 0.00 0.00 0.00 0.00 0.00 0.00 0.00 0.00 0.00 0.00 0.00 0.00 0.00 0.00 0.00 0.00 0.00 0.00 0.00 0.00 0.00 0.00 0.00 0.00 0.00 0.00 0.00 0.00 0.00 0.00 0.00 0.00
0.01 0.01 0.01 0.00 0.00 0.00 0.00 0.00 0.00 0.00 0.00 0.00 0.00 0.00 0.00 0.00 0.00 0.00 0.00 0.00 0.00 0.00 0.00 0.00 0.00 0.00 0.00 0.00 0.00 0.00 0.00 0.00 0.00 0.00 0.00 0.00 0.00 0.00 0.00 0.00 0.00 0.00 0.00 0.00 0.00 0.00 0.00 0.00 0.00 0.00 0.00 0.00 0.00 0.00
0.01 0.00 0.00 0.00 0.00 0.00 0.00 0.00 0.00 0.00 0.00 0.00 0.00 0.00 0.00 0.00 0.00 0.00 0.00 0.00 0.00 0.00 0.00 0.00 0.00 0.00 0.00 0.00 0.00 0.00 0.00 0.00 0.00 0.00 0.00 0.00 0.00 0.00 0.00 0.00 0.00 0.00 0.00 0.00 0.00 0.00 0.00 0.00 0.00 0.00 0.00 0.00 0.00 0.01
0.00 0.00 0.00 0.00 0.00 0.00 0.00 0.00 0.00 0.00 0.00 0.00 0.00 0.00 0.00 0.00 0.00 0.00 0.00 0.00 0.00 0.00 0.00 0.00 0.00 0.00 0.00 0.00 0.00 0.00 0.00 0.00 0.00 0.00 0.00 0.00 0.00 0.00 0.00 0.00 0.00 0.00 0.00 0.00 0.00 0.00 0.00 0.00 0.00 0.00 0.01 0.00 0.00 0.00
0.00 0.00 0.00 0.00 0.00 0.00 0.00 0.00 0.00 0.00 0.00 0.00 0.00 0.00 0.00 0.00 0.00 0.00 0.00 0.00 0.00 0.00 0.00 0.00 0.00 0.00 0.00 0.00 0.00 0.00 0.00 0.00 0.00 0.00 0.00 0.00 0.00 0.00 0.00 0.00 0.00 0.00 0.00 0.00 0.00 0.00 0.00 0.00 0.00 0.00 0.00 0.00 0.00 0.00
0.00 0.00 0.00 0.00 0.00 0.00 0.00 0.00 0.00 0.00 0.00 0.00 0.00 0.00 0.00 0.00 0.00 0.00 0.00 0.00 0.00 0.00 0.00 0.00 0.00 0.00 0.00 0.00 0.00 0.00 0.00 0.00 0.00 0.00 0.00 0.00 0.00 0.00 0.00 0.00 0.00 0.00 0.00 0.00 0.00 0.00 0.00 0.00 0.00 0.00 0.00 0.00 0.00 0.00
0.00 0.00 0.00 0.00 0.00 0.00 0.00 0.00 0.00 0.00 0.00 0.00 0.00 0.00 0.00 0.00 0.00 0.00 0.00 0.00 0.00 0.00 0.00 0.00 0.00 0.00 0.00 0.00 0.00 0.00 0.00 0.00 0.00 0.00 0.00 0.00 0.00 0.00 0.00 0.00 0.00 0.00 0.00 0.00 0.00 0.00 0.00 0.00 0.00 0.00 0.00 0.00 0.00 0.00
0.00 0.00 0.00 0.00 0.00 0.00 0.00 0.00 0.00 0.00 0.00 0.00 0.00 0.00 0.00 0.00 0.00 0.00 0.00 0.00 0.00 0.00 0.00 0.00 0.00 0.00 0.00 0.00 0.00 0.00 0.00 0.00 0.00 0.00 0.00 0.00 0.00 0.00 0.00 0.00 0.00 0.00 0.00 0.00 0.00 0.00 0.00 0.00 0.00 0.00 0.00 0.00 0.00 0.00
0.00 0.00 0.00 0.00 0.00 0.00 0.00 0.00 0.00 0.00 0.00 0.00 0.00 0.00 0.00 0.00 0.00 0.00 0.00 0.00 0.00 0.00 0.00 0.00 0.00 0.00 0.00 0.00 0.00 0.00 0.00 0.00 0.00 0.00 0.00 0.00 0.00 0.00 0.00 0.00 0.00 0.00 0.00 0.00 0.00 0.00 0.00 0.00 0.00 0.00 0.00 0.00 0.00 0.00
0.00 0.00 0.00 0.00 0.00 0.00 0.00 0.00 0.00 0.00 0.00 0.00 0.00 0.00 0.00 0.00 0.00 0.00 0.00 0.00 0.00 0.00 0.00 0.00 0.00 0.00 0.00 0.00 0.00 0.00 0.00 0.00 0.00 0.00 0.00 0.00 0.00 0.00 0.00 0.00 0.00 0.00 0.00 0.00 0.00 0.00 0.00 0.00 0.00 0.00 0.00 0.00 0.00 0.00
MSLP
1026.99 1027.31 1027.41 1027.60 1027.83 1027.71 1027.61 1028.00 1028.02 1027.64 1027.77 1028.08 1027.77 1027.40 1027.41 1027.14 1026.80 1026.94 1026.50 1026.74 1026.79 1025.72 1024.35 1023.64 1023.39 1023.20 1022.82 1022.49 1022.09 1021.35 1021.57 1020.73 1021.02 1020.95 1020.40 1019.59 1018.22 1017.54 1017.54 1017.07 1017.09 1017.07 1017.03 1016.80 1016.03 1014.55 1012.57 1011.62 1011.74 1011.78 1011.48 1011.54 1011.85 1011.65
1026.67 1026.95 1027.18 1027.25 1027.39 1027.70 1027.62 1027.56 1027.97 1028.18 1027.99 1027.43 1027.59 1027.64 1027.46 1027.06 1027.31 1026.97 1026.91 1026.94 1026.75 1026.53 1024.80 1023.98 1023.59 1023.27 1023.08 1023.21 1023.15 1022.59 1021.83 1021.22 1021.22 1021.11 1020.64 1020.37 1019.44 1018.60 1018.06 1016.87 1016.79 1016.45 1015.83 1014.95 1014.41 1012.03 1010.83 1011.49 1011.79 1011.68 1011.64 1011.73 1012.19 1012.04
1026.13 1026.48 1026.65 1026.90 1027.23 1027.27 1027.50 1027.66 1027.54 1027.70 1027.73 1027.51 1027.49 1027.47 1027.60 1027.42 1027.27 1027.12 1026.89 1026.83 1026.80 1025.99 1024.29 1023.39 1022.71 1022.41 1022.77 1022.84 1023.18 1023.08 1021.66 1021.51 1021.31 1021.25 1021.22 1020.70 1019.73 1019.25 1018.15 1016.55 1016.04 1015.20 1015.03 1014.04 1013.83 1012.20 1012.07 1011.58 1011.84 1011.84 1011.76 1012.14 1012.39 1012.27
1025.91 1025.95 1026.33 1026.58 1026.88 1027.15 1027.35 1027.19 1027.44 1027.43 1027.45 1027.41 1027.33 1027.54 1027.56 1027.33 1027.25 1027.09 1026.89 1026.72 1026.96 1026.44 1025.02 1022.85 1022.89 1022.75 1022.43 1022.54 1022.57 1022.26 1021.99 1021.60 1021.89 1022.12 1021.81 1020.63 1019.75 1019.09 1018.02 1017.19 1016.31 1015.71 1015.06 1013.85 1012.78 1012.85 1012.60 1012.07 1012.12 1012.28 1011.95 1012.02 1011.79 1011.71
1025.47 1025.85 1026.10 1026.27 1026.63 1026.80 1026.86 1027.11 1027.28 1027.08 1027.33 1027.52 1027.20 1027.32 1027.14 1027.27 1027.27 1026.91 1026.64 1026.44 1026.55 1026.89 1025.48 1023.57 1022.97 1021.95 1021.67 1021.70 1021.79 1022.09 1022.00 1022.05 1021.85 1021.80 1021.21 1020.03 1019.45 1019.56 1018.18 1017.45 1015.46 1015.75 1014.22 1013.91 1012.40 1012.91 1012.58 1012.41 1012.90 1012.65 1012.03 1012.04 1012.02 1011.90
1025.06 1025.50 1025.87 1026.09 1026.11 1026.35 1026.47 1026.81 1026.89 1027.17 1027.33 1027.22 1027.02 1027.03 1027.08 1027.22 1027.05 1026.73 1026.13 1026.51 1026.67 1026.85 1026.40 1024.51 1022.43 1021.87 1021.04 1021.09 1021.35 1021.16 1021.16 1021.08 1021.37 1020.76 1020.09 1019.31 1019.31 1019.32 1017.64 1015.77 1014.67 1014.59 1014.33 1013.59 1012.78 1012.82 1012.72 1012.81 1012.75 1012.80 1012.87 1012.46 1012.20 1011.56
1024.55 1024.91 1025.28 1025.53 1025.78 1025.99 1026.20 1026.57 1026.57 1026.87 1026.95 1027.05 1027.05 1026.81 1026.87 1027.09 1027.05 1026.74 1026.44 1026.56 1026.60 1026.70 1026.50 1025.13 1022.84 1021.42 1021.54 1021.21 1020.71 1020.64 1020.89 1020.67 1020.62 1020.04 1019.11 1018.75 1018.37 1018.40 1017.15 1015.23 1013.61 1014.29 1013.97 1013.51 1013.29 1013.53 1013.40 1013.49 1013.20 1013.06 1012.85 1012.34 1011.84 1011.41
1024.01 1024.41 1024.63 1025.14 1025.36 1025.64 1026.00 1026.10 1026.38 1026.64 1026.74 1026.64 1026.66 1026.74 1026.81 1026.63 1026.47 1026.40 1025.85 1026.11 1026.46 1026.79 1026.92 1025.59 1022.91 1021.93 1021.28 1020.65 1020.37 1020.49 1020.37 1020.66 1019.99 1019.32 1018.22 1017.63 1017.03 1016.71 1015.47 1014.15 1014.03 1013.56 1013.50 1013.61 1014.18 1014.15 1013.80 1013.27 1012.80 1012.37 1011.92 1011.70 1011.41 1011.11
1023.38 1023.78 1024.23 1024.55 1024.96 1025.22 1025.67 1025.89 1026.11 1026.35 1026.39 1026.42 1026.47 1026.52 1026.41 1026.36 1026.25 1025.98 1026.35 1026.30 1026.09 1026.17 1025.41 1024.31 1022.60 1021.50 1021.60 1020.93 1020.88 1020.43 1020.13 1019.63 1018.64 1018.02 1017.59 1017.38 1016.01 1014.95 1013.74 1013.77 1013.62 1013.72 1014.17 1014.33 1014.11 1013.73 1013.32 1012.99 1012.65 1012.19 1011.83 1011.45 1011.18 1010.66
1022.73 1023.09 1023.59 1024.03 1024.46 1024.95 1025.26 1025.55 1025.79 1026.03 1026.13 1026.30 1026.48 1026.39 1026.24 1026.21 1026.35 1026.27 1026.14 1026.08 1025.89 1025.15 1024.77 1023.24 1022.50 1021.50 1021.33 1020.90 1020.48 1020.37 1019.48 1019.18 1017.85 1016.68 1016.66 1015.86 1014.66 1014.00 1013.53 1013.23 1013.15 1013.64 1014.02 1013.92 1013.81 1013.34 1012.91 1012.42 1012.17 1011.82 1011.57 1011.31 1010.94 1010.32
1021.87 1022.46 1022.93 1023.42 1023.93 1024.42 1024.86 1025.22 1025.56 1025.78 1026.14 1026.26 1026.37 1026.51 1026.28 1026.33 1026.15 1025.88 1025.70 1025.77 1024.79 1024.17 1023.23 1022.26 1021.47 1020.79 1020.42 1020.75 1020.56 1020.58 1019.45 1018.52 1017.47 1015.97 1015.91 1014.39 1013.48 1013.09 1012.79 1012.97 1013.01 1013.42 1013.59 1013.36 1013.25 1012.94 1012.61 1012.25 1011.81 1011.41 1010.91 1010.68 1010.28 1009.78
1021.06 1021.57 1022.20 1022.72 1023.32 1023.89 1024.39 1024.77 1025.12 1025.55 1025.76 1025.94 1026.34 1026.52 1026.57 1026.39 1026.25 1026.11 1025.19 1024.85 1024.50 1023.01 1021.59 1021.05 1020.59 1020.57 1020.31 1020.69 1020.77 1019.93 1019.14 1018.16 1016.70 1016.64 1015.86 1014.12 1013.25 1012.78 1012.95 1013.07 1013.14 1013.04 1012.85 1012.94 1012.76 1012.26 1011.83 1011.35 1011.00 1010.61 1010.17 1009.84 1009.49 1009.08
1020.03 1020.71 1021.42 1022.07 1022.63 1023.22 1023.77 1024.31 1024.68 1025.07 1025.61 1026.07 1026.64 1026.55 1026.38 1026.11 1025.75 1024.76 1023.67 1022.98 1022.39 1021.65 1021.06 1020.60 1020.44 1020.22 1020.11 1020.49 1020.20 1019.75 1018.55 1017.52 1017.03 1016.25 1014.84 1013.64 1013.00 1012.68 1012.91 1012.93 1012.87 1012.77 1012.74 1012.47 1012.11 1011.59 1011.12 1010.49 1010.08 1009.81 1009.37 1008.99 1008.60 1008.16
1019.14 1019.86 1020.55 1021.24 1021.87 1022.54 1023.18 1023.77 1024.22 1024.92 1025.49 1025.98 1026.27 1025.87 1025.39 1024.20 1023.43 1022.01 1021.41 1020.84 1020.50 1020.59 1020.50 1020.52 1020.46 1020.16 1019.84 1019.80 1019.33 1018.69 1017.60 1017.41 1016.28 1015.13 1014.00 1013.07 1012.52 1012.20 1012.06 1011.97 1012.02 1011.83 1011.71 1011.52 1011.23 1010.57 1010.03 1009.70 1009.31 1008.90 1008.54 1008.26 1007.85 1007.31
1018.24 1018.99 1019.68 1020.38 1021.06 1021.83 1022.45 1023.04 1023.58 1024.40 1025.08 1025.42 1025.19 1024.02 1022.61 1021.59 1021.31 1021.13 1021.05 1020.80 1020.61 1020.65 1020.67 1020.80 1020.64 1020.28 1019.72 1019.25 1018.33 1017.55 1016.74 1015.72 1014.64 1013.77 1012.99 1012.42 1011.92 1011.57 1011.35 1011.25 1011.15 1011.05 1010.84 1010.62 1010.24 1009.79 1009.38 1009.06 1008.70 1008.21 1007.82 1007.39 1007.02 1006.53
1017.40 1018.31 1018.54 1019.34 1020.19 1021.00 1021.74 1022.50 1023.19 1023.93 1024.39 1024.48 1023.70 1022.15 1021.64 1021.47 1020.69 1020.73 1020.57 1020.30 1020.34 1020.43 1020.82 1020.81 1020.20 1019.55 1018.79 1018.19 1017.25 1016.39 1015.48 1014.50 1013.70 1013.14 1012.26 1011.67 1011.23 1010.97 1010.83 1010.66 1010.47 1010.21 1009.92 1009.66 1009.32 1008.99 1008.64 1008.22 1007.84 1007.46 1006.92 1006.35 1005.96 1005.61
1016.89 1016.72 1017.29 1018.26 1019.20 1020.10 1021.06 1022.31 1023.00 1023.21 1023.46 1022.87 1021.46 1020.91 1020.67 1020.26 1019.99 1019.67 1019.44 1019.11 1019.21 1019.90 1019.77 1019.63 1019.31 1018.52 1017.78 1016.90 1016.03 1015.34 1014.39 1013.65 1012.75 1011.91 1011.41 1010.87 1010.51 1010.35 1010.16 1009.87 1009.58 1009.24 1008.91 1008.68 1008.35 1007.98 1007.56 1007.13 1006.82 1006.47 1005.80 1005.06 1004.84 1004.56
1015.27 1015.69 1016.46 1017.27 1018.50 1019.69 1020.55 1021.68 1022.26 1022.31 1022.01 1021.46 1021.03 1020.17 1020.14 1019.68 1019.20 1018.74 1018.30 1018.26 1018.91 1018.84 1018.53 1018.40 1017.96 1017.41 1016.75 1015.64 1014.75 1014.02 1013.12 1012.33 1011.69 1011.01 1010.47 1010.16 1009.80 1009.47 1009.11 1008.68 1008.29 1008.06 1007.76 1007.47 1007.17 1006.87 1006.49 1006.08 1005.74 1005.13 1004.68 1004.18 1003.86 1003.45
1014.18 1014.99 1015.58 1016.40 1017.77 1019.21 1020.12 1020.95 1021.18 1021.06 1020.62 1020.27 1020.09 1019.83 1019.50 1018.74 1018.26 1017.88 1017.59 1017.41 1017.70 1017.95 1018.12 1017.65 1017.03 1016.03 1015.04 1014.04 1013.09 1012.32 1011.70 1011.21 1010.60 1010.07 1009.66 1009.23 1008.85 1008.35 1007.91 1007.64 1007.36 1007.02 1006.71 1006.41 1006.06 1005.66 1005.15 1004.79 1004.43 1004.02 1003.62 1003.16 1002.72 1002.32
1013.19 1013.72 1014.87 1015.48 1017.09 1018.51 1019.44 1020.16 1020.46 1020.33 1019.90 1019.42 1019.35 1018.89 1018.56 1018.26 1017.72 1017.37 1017.04 1016.80 1017.13 1017.43 1017.32 1016.53 1015.18 1013.71 1012.66 1011.75 1011.43 1010.96 1010.58 1010.24 1009.72 1009.05 1008.47 1008.01 1007.63 1007.29 1006.98 1006.63 1006.24 1005.82 1005.47 1005.03 1004.66 1004.32 1003.91 1003.44 1003.02 1002.65 1002.26 1001.91 1001.54 1001.08
1013.35 1013.38 1013.64 1014.92 1016.83 1017.59 1018.15 1018.77 1019.36 1019.31 1019.16 1019.56 1019.17 1019.07 1018.32 1018.09 1017.63 1017.01 1016.44 1016.47 1016.69 1016.25 1015.13 1013.63 1012.40 1011.79 1010.99 1010.63 1010.39 1009.87 1009.51 1009.22 1008.65 1008.07 1007.45 1007.01 1006.69 1006.43 1005.98 1005.64 1005.22 1004.86 1004.43 1003.84 1003.41 1002.87 1002.52 1002.00 1001.49 1001.28 1001.02 1000.67 1000.35 1000.09
1013.08 1014.12 1015.14 1015.57 1016.34 1017.57 1017.96 1018.22 1018.21 1018.41 1019.23 1019.10 1019.47 1018.83 1018.30 1017.84 1017.18 1016.55 1016.41 1016.05 1014.77 1013.16 1012.24 1011.64 1011.03 1010.53 1010.23 1009.74 1009.16 1008.85 1008.44 1008.03 1007.53 1007.06 1006.54 1006.14 1005.57 1005.01 1004.57 1004.19 1003.91 1003.44 1003.01 1002.59 1002.20 1001.73 1001.28 1000.91 1000.69 1000.40 1000.07 999.74 999.56 999.33
1013.41 1014.11 1015.22 1016.07 1016.83 1017.31 1017.72 1017.85 1018.02 1018.27 1018.71 1018.69 1019.01 1018.61 1018.01 1017.53 1016.93 1017.04 1015.96 1014.19 1012.52 1011.03 1010.69 1010.62 1010.09 1009.72 1009.38 1008.74 1008.34 1007.86 1007.34 1006.95 1006.46 1005.87 1005.29 1004.74 1004.17 1003.74 1003.31 1002.94 1002.70 1002.30 1001.68 1001.07 1000.92 1000.59 1000.23 999.99 999.71 999.40 999.30 999.20 998.97 998.65
1013.48 1014.58 1015.37 1015.91 1016.25 1016.86 1017.20 1017.28 1017.41 1017.93 1018.28 1018.42 1018.42 1018.07 1017.32 1017.10 1017.10 1016.46 1014.73 1012.48 1010.34 1009.84 1009.75 1009.39 1009.26 1008.85 1008.25 1007.75 1007.35 1006.76 1006.21 1005.81 1005.29 1004.69 1004.22 1003.68 1002.94 1002.42 1002.24 1001.60 1001.17 1000.80 1000.44 999.96 999.75 999.47 999.18 998.95 998.81 998.72 998.49 998.17 997.92 997.73
1014.08 1014.98 1015.14 1015.15 1015.65 1016.26 1016.53 1016.81 1016.84 1017.33 1017.20 1017.45 1017.90 1017.45 1016.70 1016.98 1016.36 1014.96 1012.95 1010.30 1009.61 1009.00 1008.46 1008.14 1007.91 1007.63 1007.37 1006.72 1006.05 1005.51 1004.87 1004.64 1004.15 1003.48 1002.83 1002.68 1001.95 1001.31 1000.87 1000.57 1000.11 999.76 999.52 999.21 998.98 998.67 998.30 998.13 997.86 997.57 997.31 997.07 996.85 996.70
1013.41 1013.53 1013.89 1014.06 1014.51 1015.17 1015.39 1015.70 1015.96 1016.09 1016.34 1016.75 1016.71 1016.55 1016.75 1016.29 1015.24 1013.06 1010.18 1008.80 1008.39 1007.96 1007.55 1007.28 1007.03 1006.67 1006.25 1005.83 1005.11 1004.51 1003.96 1003.68 1003.41 1002.73 1002.05 1001.85 1001.40 1000.94 1000.39 999.94 999.24 998.55 998.83 998.66 998.22 997.75 997.37 997.06 996.74 996.44 996.18 996.04 995.93 995.81
1012.45 1012.76 1013.17 1013.39 1013.68 1014.05 1014.56 1014.84 1015.07 1015.34 1015.58 1015.66 1015.29 1015.79 1015.70 1014.87 1012.67 1009.90 1008.23 1007.45 1007.40 1006.76 1006.61 1006.51 1006.38 1006.05 1005.50 1004.98 1004.72 1004.42 1004.04 1003.67 1003.24 1002.51 1001.91 1001.58 1001.17 1000.84 1000.41 999.70 998.90 998.29 998.10 997.88 997.48 997.04 996.59 996.15 995.81 995.62 995.43 995.32 995.28 995.25
1011.37 1011.75 1012.29 1013.01 1013.35 1013.47 1013.75 1014.18 1014.37 1014.29 1013.91 1013.94 1014.28 1014.15 1013.18 1011.27 1008.92 1007.30 1006.64 1006.09 1006.14 1006.13 1006.14 1005.94 1005.75 1005.48 1005.25 1005.06 1004.71 1004.20 1003.56 1003.18 1002.87 1002.35 1001.70 1001.03 1000.52 1000.10 999.68 999.18 998.68 998.20 997.84 997.47 996.95 996.42 995.96 995.52 995.17 994.95 994.83 994.76 994.75 994.84
1010.79 1011.08 1011.50 1012.30 1013.01 1013.30 1013.12 1013.03 1012.74 1012.27 1012.12 1012.51 1011.94 1010.82 1009.43 1008.03 1006.98 1006.34 1005.85 1005.81 1005.79 1005.88 1005.72 1005.32 1005.25 1005.50 1005.28 1004.92 1004.63 1004.23 1003.84 1003.42 1002.90 1002.24 1001.65 1000.92 1000.27 999.83 999.52 999.12 998.53 997.91 997.34 996.75 996.11 995.64 995.16 994.71 994.34 994.16 994.19 994.24 994.25 994.38
1009.93 1010.31 1011.08 1011.83 1012.37 1011.77 1011.65 1011.78 1011.32 1010.92 1010.92 1010.64 1010.16 1009.21 1008.21 1006.93 1005.97 1005.83 1005.80 1005.68 1005.54 1005.54 1005.81 1005.95 1005.88 1005.74 1005.40 1005.07 1004.46 1004.05 1003.82 1003.46 1003.03 1002.67 1001.97 1001.19 1000.53 999.94 999.39 998.70 997.97 997.28 996.70 996.12 995.49 994.87 994.34 993.93 993.54 993.30 993.35 993.72 994.02 994.16
1009.34 1010.14 1010.62 1011.01 1010.99 1010.88 1011.12 1011.41 1011.34 1011.32 1011.02 1010.50 1009.89 1009.43 1007.61 1006.63 1005.73 1005.35 1005.70 1006.02 1006.14 1006.30 1006.41 1006.28 1006.15 1005.96 1005.69 1005.26 1004.96 1004.47 1003.74 1003.02 1002.70 1002.34 1001.83 1001.09 1000.25 999.48 998.70 997.93 997.12 996.51 996.01 995.43 994.88 994.38 993.95 993.58 993.32 993.15 993.34 993.59 993.78 993.93
1009.39 1009.62 1010.12 1010.56 1010.89 1011.29 1011.71 1011.74 1011.29 1011.02 1010.26 1010.05 1009.08 1008.42 1007.81 1007.52 1006.86 1006.01 1006.84 1006.68 1006.75 1006.84 1006.83 1006.88 1006.58 1006.02 1005.79 1005.45 1005.02 1004.61 1004.05 1003.34 1002.62 1001.90 1001.18 1000.37 999.53 998.78 998.05 997.15 996.50 996.04 995.54 994.96 994.53 994.10 993.64 993.22 992.95 993.07 993.35 993.52 993.67 993.92
1010.22 1010.29 1010.55 1010.65 1010.97 1011.21 1011.48 1011.57 1011.17 1010.71 1010.27 1009.48 1008.35 1007.53 1007.19 1007.21 1007.02 1006.82 1007.31 1007.31 1007.42 1007.49 1007.33 1007.14 1006.68 1006.14 1005.66 1005.24 1004.70 1004.21 1003.64 1003.05 1002.38 1001.52 1000.77 999.93 999.11 998.33 997.58 996.96 996.43 995.88 995.28 994.86 994.46 993.98 993.55 993.07 992.88 993.00 993.22 993.44 993.77 994.13
Thickness
5450 5450 5451 5450 5450 5453 5456 5452 5454 5459 5457 5452 5456 5460 5459 5463 5464 5460 5463 5457 5456 5467 5479 5481 5480 5477 5477 5478 5473 5485 5475 5485 5473 5462 5473 5484 5499 5500 5487 5498 5492 5488 5478 5463 5464 5463 5476 5498 5488 5481 5480 5480 5473 5472
5434 5433 5433 5435 5436 5434 5437 5439 5435 5434 5437 5443 5441 5439 5440 5444 5440 5442 5440 5436 5437 5438 5456 5458 5458 5456 5454 5451 5448 5449 5456 5459 5451 5442 5447 5448 5460 5462 5464 5468 5475 5464 5473 5481 5480 5497 5499 5482 5468 5465 5462 5455 5449 5448
5419 5418 5418 5418 5416 5418 5417 5417 5420 5419 5419 5421 5421 5422 5420 5421 5421 5421 5421 5419 5417 5424 5443 5449 5449 5447 5439 5436 5429 5423 5438 5434 5432 5425 5420 5425 5427 5435 5438 5457 5457 5467 5466 5464 5463 5482 5464 5467 5455 5448 5445 5434 5432 5430
5402 5404 5402 5402 5400 5399 5398 5401 5400 5401 5402 5403 5404 5402 5402 5403 5402 5402 5402 5399 5395 5398 5410 5440 5426 5424 5423 5419 5415 5416 5415 5415 5403 5397 5389 5402 5408 5412 5420 5426 5428 5443 5440 5442 5439 5439 5435 5443 5433 5428 5429 5425 5422 5420
5387 5385 5385 5385 5384 5384 5384 5383 5383 5386 5385 5383 5387 5385 5388 5386 5383 5384 5385 5383 5379 5376 5389 5412 5413 5415 5408 5408 5404 5397 5391 5385 5385 5379 5378 5391 5396 5380 5399 5400 5417 5418 5427 5413 5415 5418 5412 5412 5406 5406 5408 5403 5397 5391
5369 5369 5368 5368 5370 5370 5370 5368 5368 5366 5366 5368 5371 5370 5369 5368 5368 5368 5373 5366 5361 5355 5355 5378 5402 5401 5400 5395 5386 5385 5382 5380 5375 5374 5374 5384 5383 5364 5367 5389 5419 5414 5401 5403 5404 5401 5399 5393 5390 5384 5373 5376 5372 5376
5353 5353 5354 5354 5354 5354 5353 5351 5351 5351 5351 5351 5351 5353 5352 5350 5350 5351 5350 5347 5343 5338 5335 5347 5373 5386 5381 5375 5379 5372 5366 5366 5364 5364 5368 5370 5371 5356 5350 5366 5407 5386 5384 5385 5385 5374 5370 5364 5361 5360 5356 5357 5358 5358
5339 5339 5340 5339 5339 5338 5336 5336 5335 5334 5334 5336 5336 5334 5333 5334 5335 5336 5335 5331 5325 5318 5311 5320 5351 5356 5362 5369 5368 5360 5352 5344 5349 5348 5363 5360 5367 5352 5347 5375 5365 5375 5370 5363 5351 5349 5347 5351 5353 5351 5350 5346 5345 5342
5325 5325 5324 5324 5323 5323 5320 5319 5319 5318 5318 5319 5319 5318 5320 5319 5320 5322 5318 5315 5312 5310 5310 5318 5332 5335 5336 5341 5338 5342 5338 5328 5343 5345 5346 5337 5352 5344 5363 5353 5350 5347 5339 5337 5337 5335 5335 5335 5335 5336 5335 5335 5333 5335
5311 5312 5311 5310 5309 5306 5306 5305 5304 5303 5304 5303 5302 5304 5303 5307 5303 5302 5303 5303 5298 5301 5300 5312 5316 5319 5319 5323 5318 5317 5322 5317 5318 5338 5332 5326 5337 5350 5347 5345 5341 5329 5321 5324 5320 5322 5324 5329 5326 5327 5326 5325 5323 5327
5299 5299 5298 5297 5296 5294 5292 5291 5289 5289 5289 5288 5288 5287 5290 5289 5292 5293 5291 5286 5294 5292 5298 5303 5308 5307 5309 5296 5296 5289 5292 5303 5303 5328 5316 5328 5332 5338 5337 5330 5328 5320 5316 5316 5314 5317 5318 5318 5318 5319 5320 5318 5319 5321
5287 5288 5287 5286 5285 5283 5281 5280 5278 5278 5277 5278 5277 5275 5275 5275 5275 5277 5281 5279 5273 5286 5302 5297 5301 5294 5291 5282 5272 5281 5284 5292 5301 5297 5299 5311 5329 5328 5320 5316 5313 5312 5312 5307 5307 5310 5313 5315 5315 5314 5315 5313 5313 5314
5282 5280 5279 5277 5276 5275 5273 5271 5269 5267 5265 5264 5262 5263 5267 5269 5270 5277 5276 5280 5278 5285 5287 5287 5288 5284 5280 5273 5273 5272 5279 5287 5289 5290 5301 5315 5323 5320 5308 5305 5305 5302 5298 5299 5298 5302 5305 5309 5310 5309 5308 5308 5306 5305
5279 5276 5274 5272 5270 5268 5266 5263 5261 5258 5256 5254 5251 5257 5262 5276 5278 5294 5295 5297 5294 5282 5280 5276 5272 5274 5277 5271 5275 5269 5283 5272 5276 5280 5292 5313 5314 5314 5310 5306 5299 5297 5298 5295 5293 5297 5300 5301 5301 5301 5299 5297 5295 5295
5277 5275 5273 5271 5269 5265 5262 5260 5258 5253 5248 5249 5252 5263 5281 5293 5292 5290 5283 5279 5274 5267 5263 5260 5258 5260 5262 5262 5272 5275 5270 5271 5286 5290 5301 5303 5304 5303 5300 5298 5294 5290 5289 5287 5289 5289 5289 5288 5287 5287 5288 5288 5287 5286
5275 5272 5275 5272 5268 5265 5261 5257 5253 5248 5243 5247 5254 5271 5275 5270 5280 5273 5266 5265 5262 5257 5250 5249 5249 5250 5254 5257 5259 5258 5268 5268 5280 5286 5293 5296 5295 5294 5290 5288 5285 5284 5283 5280 5279 5278 5278 5278 5278 5278 5281 5283 5280 5278
5269 5277 5279 5274 5270 5265 5259 5251 5246 5244 5243 5249 5266 5275 5276 5277 5274 5276 5272 5266 5262 5248 5249 5250 5241 5244 5256 5249 5254 5267 5265 5274 5280 5283 5286 5288 5284 5280 5279 5279 5279 5278 5277 5273 5272 5273 5274 5276 5275 5273 5274 5279 5276 5274
5269 5277 5277 5275 5269 5261 5254 5246 5242 5242 5246 5254 5258 5271 5266 5269 5268 5268 5267 5261 5247 5246 5249 5244 5249 5241 5241 5243 5253 5264 5268 5270 5271 5273 5273 5273 5274 5275 5275 5276 5277 5275 5273 5271 5271 5270 5270 5271 5270 5272 5271 5271 5269 5270
5272 5273 5275 5274 5266 5257 5251 5243 5241 5243 5250 5259 5260 5262 5261 5266 5266 5260 5259 5258 5250 5244 5237 5237 5230 5234 5247 5257 5258 5260 5262 5262 5262 5264 5264 5266 5268 5271 5271 5270 5270 5270 5268 5267 5267 5269 5271 5272 5270 5270 5268 5269 5270 5273
5269 5274 5271 5271 5264 5254 5245 5240 5240 5244 5251 5259 5256 5259 5257 5255 5256 5254 5253 5252 5243 5232 5223 5225 5238 5253 5258 5263 5262 5259 5258 5258 5257 5256 5259 5264 5267 5266 5266 5267 5267 5268 5268 5270 5270 5271 5270 5270 5272 5271 5272 5272 5273 5275
5255 5266 5273 5267 5252 5248 5249 5241 5240 5246 5250 5243 5244 5239 5247 5237 5237 5243 5245 5243 5231 5226 5232 5248 5258 5261 5264 5261 5259 5258 5256 5256 5255 5257 5257 5257 5262 5261 5262 5263 5264 5264 5265 5268 5269 5272 5273 5274 5277 5276 5274 5276 5276 5276
5251 5251 5250 5248 5247 5239 5239 5237 5247 5247 5237 5239 5227 5233 5235 5237 5240 5240 5230 5227 5235 5250 5257 5259 5260 5260 5256 5258 5260 5259 5258 5256 5257 5257 5259 5258 5258 5262 5264 5266 5265 5266 5268 5270 5271 5272 5274 5277 5275 5274 5274 5275 5275 5276
5244 5245 5241 5238 5236 5234 5234 5236 5239 5236 5235 5235 5220 5227 5227 5223 5224 5214 5224 5239 5252 5265 5262 5257 5257 5256 5254 5257 5256 5256 5257 5254 5253 5256 5258 5261 5264 5266 5266 5268 5269 5269 5272 5278 5276 5275 5275 5276 5276 5275 5273 5269 5269 5270
5238 5236 5234 5232 5233 5228 5231 5236 5240 5232 5226 5224 5219 5218 5227 5223 5209 5211 5222 5251 5265 5264 5258 5256 5254 5253 5256 5255 5253 5255 5258 5257 5256 5258 5262 5263 5267 5271 5272 5277 5279 5279 5278 5281 5280 5279 5278 5276 5274 5270 5268 5269 5269 5269
5228 5225 5227 5229 5231 5227 5230 5233 5237 5228 5229 5223 5215 5218 5227 5206 5213 5215 5232 5258 5260 5261 5261 5261 5258 5257 5252 5254 5259 5260 5265 5260 5259 5264 5271 5269 5273 5278 5281 5281 5284 5285 5283 5280 5278 5277 5276 5273 5272 5273 5273 5273 5273 5272
5224 5229 5231 5231 5237 5233 5234 5229 5227 5228 5228 5216 5218 5218 5201 5207 5206 5223 5252 5265 5263 5261 5261 5260 5258 5258 5260 5260 5262 5265 5267 5267 5266 5270 5274 5274 5276 5279 5280 5282 5286 5290 5284 5281 5280 5280 5280 5279 5279 5279 5279 5277 5277 5276
5226 5227 5230 5235 5237 5235 5231 5230 5232 5228 5217 5215 5226 5203 5205 5211 5222 5248 5265 5267 5259 5264 5263 5260 5258 5259 5261 5264 5263 5261 5262 5263 5263 5268 5272 5272 5274 5274 5276 5281 5286 5289 5287 5284 5283 5283 5284 5284 5283 5282 5280 5278 5277 5277
5233 5233 5230 5231 5230 5234 5230 5229 5223 5223 5231 5232 5220 5202 5211 5225 5250 5271 5269 5271 5266 5262 5261 5261 5261 5261 5261 5259 5258 5260 5264 5265 5265 5266 5271 5275 5278 5279 5281 5283 5284 5286 5284 5283 5284 5285 5285 5285 5285 5284 5282 5281 5281 5280
5235 5236 5244 5231 5216 5223 5230 5234 5238 5243 5244 5231 5233 5247 5247 5261 5268 5268 5271 5268 5266 5264 5266 5268 5266 5259 5258 5258 5258 5258 5259 5261 5262 5264 5267 5273 5277 5279 5279 5280 5282 5284 5285 5287 5289 5289 5290 5290 5289 5288 5287 5287 5289 5291
5241 5245 5241 5228 5224 5236 5246 5240 5248 5248 5244 5246 5244 5253 5260 5265 5270 5267 5266 5268 5270 5269 5262 5257 5255 5254 5254 5254 5257 5258 5257 5258 5260 5261 5265 5269 5273 5276 5278 5281 5284 5287 5289 5291 5292 5294 5296 5295 5296 5297 5298 5297 5300 5303
5244 5241 5236 5238 5244 5254 5249 5232 5229 5229 5230 5234 5234 5235 5254 5261 5268 5268 5263 5259 5258 5256 5254 5253 5250 5249 5249 5251 5251 5252 5255 5260 5261 5262 5264 5268 5273 5277 5281 5286 5290 5293 5295 5297 5298 5299 5299 5300 5302 5306 5306 5310 5312 5315
5241 5246 5250 5234 5238 5226 5217 5225 5234 5236 5242 5234 5249 5235 5237 5243 5254 5266 5250 5253 5253 5250 5249 5245 5244 5247 5246 5246 5248 5249 5253 5256 5259 5264 5267 5272 5278 5282 5286 5293 5296 5298 5300 5302 5303 5302 5305 5309 5314 5317 5318 5320 5323 5323
5214 5219 5215 5227 5228 5232 5222 5226 5230 5228 5227 5231 5245 5253 5253 5254 5257 5256 5247 5247 5245 5242 5241 5240 5241 5243 5245 5246 5249 5250 5254 5257 5260 5265 5270 5275 5280 5284 5290 5294 5297 5300 5305 5306 5306 5308 5312 5319 5327 5328 5329 5330 5328 5327